Home   Weather   Bernburg (Saale)   Past weeks

Flag for Germany Past Weather in Bernburg (Saale), Saxony-Anhalt, Germany — Yesterday and Last 2 Weeks

Now
25 °F

Ice fog.


Feels Like: 18 °F
Forecast: 25 / 31 °F
Wind: 6 mph from Northwest

Location: Leipzig-Schkeuditz

Current Time: Jan 23, 2017 at 6:18:32 pm

Latest Report: Jan 23, 2017 at 5:50 pm


Visibility: 3 mi

Pressure: 30.27 "Hg

Humidity: 93%

Dew Point: 23 °F

Location of Bernburg (Saale)Location

Past Weather in Bernburg (Saale) — Graph

°F

Bernburg (Saale) Temperature Yesterday

Maximum temperature yesterday: 23 °F (at 2:50 pm)
Minimum temperature yesterday: 16 °F (at 3:50 am)
Average temperature yesterday: 20 °F

High & Low Weather Summary for the Past Weeks

 TemperatureHumidityPressure
High39 °F (Jan 12, 11:20 am)100% (Jan 8, 4:20 pm)30.74 "Hg (Jan 8, 4:20 pm)
Low16 °F (Jan 19, 7:20 pm)64% (Jan 10, 1:20 pm)29.00 "Hg (Jan 13, 6:20 am)
Average28 °F89%30.16 "Hg
* Reported Jan 8 4:20 pm — Jan 23 4:50 pm, Bernburg (Saale), Weather by CustomWeather, © 2017

Note: Actual official high and low records may vary slightly from our data, if they occured in-between our weather recording intervals... More about our weather records

Advertising

Bernburg (Saale) Weather History for the Previous 24 Hours

Scroll right to see more
 ConditionsComfort  
Time TempWeatherWind HumidityBarometerVisibility
4:50 pm
Mon, Jan 23
23 °FSnow flurries. Ice fog.7 mph100%30.27 "Hg2 mi
4:20 pm25 °FSnow flurries. Ice fog.3 mph93%30.27 "Hg3 mi
3:50 pm25 °FSnow flurries. Ice fog.5 mph93%30.27 "Hg3 mi
3:20 pm23 °FSnow flurries. Ice fog.5 mph100%30.27 "Hg3 mi
2:50 pm23 °FSnow flurries. Ice fog.3 mph100%30.24 "Hg2 mi
2:20 pm23 °FSnow flurries. Ice fog.3 mph100%30.27 "Hg1 mi
1:50 pm23 °FSnow flurries. Ice fog.5 mph93%30.27 "Hg1 mi
1:20 pm23 °FSnow flurries. Ice fog.6 mph93%30.27 "Hg1 mi
12:50 pm23 °FSnow flurries. Ice fog.3 mph93%30.27 "Hg1 mi
12:20 pm23 °FSnow flurries. Ice fog.3 mph93%30.27 "Hg1 mi
11:50 am23 °FSnow flurries. Ice fog.2 mph93%30.27 "Hg1 mi
11:20 am21 °FSnow flurries. Ice fog.3 mph100%30.27 "Hg1 mi
10:50 am21 °FSnow flurries. Ice fog.3 mph100%30.27 "Hg1 mi
10:20 am21 °FSnow flurries. Ice fog.2 mph93%30.27 "Hg1 mi
9:50 am21 °FIce fog.2 mph93%30.27 "Hg0 mi
9:20 am19 °FIce fog.2 mph100%30.27 "Hg0 mi
8:50 am19 °FIce fog.1 mph93%30.27 "Hg0 mi
8:20 am19 °FIce fog.1 mph93%30.27 "Hg0 mi
7:50 am18 °FIce fog.3 mph100%30.27 "Hg1 mi
7:20 am19 °FIce fog.3 mph93%30.24 "Hg0 mi
6:50 am19 °FIce fog.3 mph93%30.24 "Hg0 mi
6:20 am19 °FIce fog.3 mph93%30.24 "Hg0 mi
5:50 am18 °FIce fog.2 mph100%30.24 "Hg0 mi
5:20 am18 °FIce fog.3 mph93%30.24 "Hg0 mi
4:50 am16 °FIce fog.3 mph100%30.24 "Hg0 mi
4:20 am18 °FIce fog.2 mph93%30.24 "Hg1 mi
3:50 am18 °FIce fog.2 mph93%30.24 "Hg1 mi
3:20 am19 °FIce fog.3 mph93%30.24 "Hg0 mi
2:50 am18 °FIce fog.2 mph100%30.27 "Hg0 mi
2:20 am19 °FIce fog.3 mph93%30.24 "Hg0 mi
1:50 am19 °FIce fog.3 mph100%30.24 "Hg0 mi
1:20 am21 °FIce fog.3 mph93%30.27 "Hg0 mi
12:50 am21 °FIce fog.3 mph93%30.27 "Hg0 mi
12:20 am21 °FIce fog.3 mph93%30.27 "Hg0 mi
11:50 pm
Sun, Jan 22
21 °FIce fog.2 mph93%30.27 "Hg0 mi
11:20 pm21 °FIce fog.3 mph93%30.27 "Hg0 mi
10:50 pm21 °FIce fog.2 mph93%30.27 "Hg0 mi
10:20 pm21 °FIce fog.3 mph93%30.27 "Hg0 mi
9:50 pm21 °FIce fog.1 mph93%30.27 "Hg0 mi
9:20 pm19 °FIce fog.2 mph93%30.27 "Hg0 mi
8:50 pm21 °FIce fog.3 mph93%30.27 "Hg0 mi
8:20 pm19 °FIce fog.2 mph100%30.27 "Hg0 mi
7:50 pm19 °FIce fog.2 mph100%30.27 "Hg0 mi
7:20 pm21 °FIce fog.3 mph93%30.27 "Hg0 mi
6:50 pm21 °FIce fog.2 mph93%30.27 "Hg0 mi
6:20 pm21 °FIce fog.2 mph93%30.27 "Hg0 mi
Weather by CustomWeather, © 2017

See weather overviewHow to use our weather pages